Weather History for CWQS - December, 2012

Change the Weather History Date:

Thursday, December 13, 2012

  Actual Average Record
Temperature  
Mean Temperature 43 °F -  
Max Temperature 45 °F - - ()
Min Temperature 41 °F - - ()
Degree Days  
Heating Degree Days 22    
Moisture  
Dew Point 38 °F    
Average Humidity 77    
Maximum Humidity 94    
Minimum Humidity 58    
Precipitation  
Precipitation 0.16 in - - ()
Sea Level Pressure  
Sea Level Pressure 29.72 in    
Wind  
Wind Speed 22 mph ()    
Max Wind Speed 33 mph    
Max Gust Speed 39 mph    
T = Trace of Precipitation, MM = Missing Value Source: Averaged Metar Reports

Daily Weather History Graph

Daily Weather History Graph

Search for Another Location

Airport or City:

Trip Planner

Search our weather history database for the weather conditions in past years. The results will help you decide how hot, cold, wet, or windy it might be!

Date:

Astronomy

Dec. 13, 2012 Rise Set
Actual Time 8:58 AM PST 4:32 PM PST
Civil Twilight 8:16 AM PST 5:15 PM PST
Nautical Twilight 7:30 AM PST 6:00 PM PST
Astronomical Twilight 6:48 AM PST 6:42 PM PST
Moon 9:10 AM PST (12/13) 5:27 PM PST (12/13)
Length of Visible Light 8h 58m
Length of Day
7h 33m
New Moon, 0% of the Moon is Illuminated
Dec 13
New Moon
Dec 19
First Quarter
Dec 28
Full
Jan 4
Last Quarter
Jan 11
New

Hourly Weather History & Observations

Time (PST) Temp. Windchill Dew Point Humidity Pressure Visibility Wind Dir Wind Speed Gust Speed Precip Events Conditions
12:00 AM 44.8 °F 35.5 °F 42.4 °F 91% 29.65 in - SSW 26.5 mph - 0.02 in   Unknown
1:00 AM 45 °F - 44 °F 92% 29.63 in - SSW 18.4 mph - -  
1:00 AM 45.3 °F 37.8 °F 43.5 °F 93% 29.63 in - SSW 18.4 mph - 0.02 in   Unknown
2:00 AM 45.5 °F 39.9 °F 43.7 °F 93% 29.61 in - WSW 11.5 mph - 0.06 in   Unknown
3:00 AM 45.1 °F 38.4 °F 43.3 °F 93% 29.62 in - WNW 15.0 mph - 0.01 in   Unknown
4:00 AM 45 °F - 43 °F 91% 29.61 in - NNW 21.9 mph - -  
4:00 AM 44.8 °F 36.4 °F 43.2 °F 94% 29.61 in - NNW 21.9 mph - 0.02 in   Unknown
5:00 AM 43.7 °F 33.7 °F 41.5 °F 92% 29.63 in - NNW 28.8 mph 35.7 mph N/A   Unknown
6:00 AM 45.3 °F 36.5 °F 39.9 °F 81% 29.64 in - NNW 25.3 mph - N/A   Unknown
7:00 AM 44 °F - 40 °F 82% 29.65 in - NNW 24.2 mph - -  
7:00 AM 44.1 °F 35.0 °F 40.3 °F 87% 29.65 in - NNW 24.2 mph - N/A   Unknown
8:00 AM 44.8 °F 35.0 °F 39.7 °F 82% 29.66 in - NNW 29.9 mph 38.0 mph N/A   Unknown
9:00 AM 45.1 °F 35.5 °F 37.0 °F 73% 29.68 in - NNW 29.9 mph 35.7 mph 0.01 in   Unknown
10:00 AM 45 °F - 37 °F 65% 29.70 in - NNW 29.9 mph - -  
10:00 AM 44.8 °F 35.0 °F 37.0 °F 74% 29.70 in - NNW 29.9 mph 35.7 mph N/A   Unknown
11:00 AM 43.7 °F 33.9 °F 34.9 °F 71% 29.72 in - NNW 27.6 mph 38.0 mph N/A   Unknown
12:00 PM 44.2 °F 34.2 °F 36.0 °F 73% 29.72 in - NNW 29.9 mph 35.7 mph N/A   Unknown
1:00 PM 44 °F - 35 °F 62% 29.73 in - NNW 29.9 mph - -  
1:00 PM 44.1 °F 34.0 °F 35.2 °F 71% 29.73 in - NNW 29.9 mph - N/A   Unknown
2:00 PM 44.6 °F 34.2 °F 34.5 °F 68% 29.74 in - NNW 33.4 mph - N/A   Unknown
3:00 PM 44.4 °F 34.9 °F 34.3 °F 68% 29.75 in - NNW 27.6 mph - N/A   Unknown
4:00 PM 44 °F - 35 °F 61% 29.77 in - NNW 29.9 mph - -  
4:00 PM 43.7 °F 33.5 °F 35.1 °F 72% 29.77 in - NNW 29.9 mph 36.8 mph N/A   Unknown
5:00 PM 42.1 °F 32.6 °F 34.2 °F 74% 29.79 in - NNW 23.0 mph 39.1 mph N/A   Unknown
6:00 PM 43.5 °F 33.1 °F 35.1 °F 72% 29.80 in - NNW 31.1 mph 36.8 mph N/A   Unknown
7:00 PM 43 °F - 36 °F 67% 29.81 in - NNW 27.6 mph - -  
7:00 PM 42.6 °F 32.4 °F 35.6 °F 76% 29.81 in - NNW 27.6 mph 34.5 mph N/A   Unknown
8:00 PM 43.0 °F 34.5 °F 34.3 °F 72% 29.81 in - NNW 19.6 mph - N/A   Unknown
9:00 PM 42.8 °F 33.1 °F 31.8 °F 65% 29.83 in - NW 25.3 mph 33.4 mph N/A   Unknown
10:00 PM 44 °F - 34 °F 58% 29.83 in - NW 18.4 mph - -  
10:00 PM 44.1 °F 36.2 °F 34.2 °F 68% 29.83 in - NW 18.4 mph - N/A   Unknown
11:00 PM 41.5 °F 32.4 °F 36.0 °F 81% 29.83 in - NW 20.7 mph 31.1 mph 0.01 in   Unknown